Tracking 35275 objects as of 8-Sep-2026
HD Live streaming from Space Station
objects crossing your sky now

TITAN 3C TRANSTAGE DEB

Track TITAN 3C TRANSTAGE DEB now!


NORAD ID: 28833
Int'l Code: 1965-108CK
Launch date: December 21, 1965
Source: United States (US)
Launch site: AIR FORCE EASTERN TEST RANGE (AFETR)

Note: This is SATELLITE DEBRIS
Your satellite tracking list
Your tracking list is empty




NASA's NSSDC Master Catalog

Two Line Element Set (TLE):
1 28833U 65108CK  26028.76982112  .00000050  00000-0  00000-0 0  9993
2 28833  27.8604 239.5933 6558514 183.5075 167.3149  2.64806015 88403
Source of the keplerian elements: AFSPC